WEINA 1B

Satellite information

Favourite Embed

Satellite Type and Status

PAYLOADIN ORBIT

Key statistics

Satellite WEINA 1B at a glance.

Uptime

2804

Days in orbit

Revolutions

≈ 13.5

Per day

Orbit

LEO

Low Earth Orbit

Inclination

63.4

Latest

Satellite identification and parameters

Extended collection of information and parameters for WEINA 1B.

Object identification

Identified? True

Debris? False

Object name: WEINA 1B

International designator: 2018-034E

Object number (NORAD): 43279

Object ID (CCSDS): 43279

Country: PEOPLES REPUBLIC OF CHINA (PRC)

Current information (Y/N): Y

RCS size: MEDIUM

Orbital parameters

Period: 107.035 minutes

Inclination: 63.3951 deg

SMA: 7467.538 km

Apoapsis: 1282.428 km

Periapsis: 896.378 km

RAAN: 212.6411 deg

Eccentricy: 0.02584854

Argument of periapsis: 7.2875 deg

Mean anomaly: 353.1795 deg

Mean motion: 13.45354086 rev/day

Mean motion (dot): 0.00000123 rev/day2

B* drag term: 0.00029473532 1/REarth

Two-line elements (TLE)

Creation date: Dec. 12, 2025, 10:14 a.m.

Reference frame: TEME

Reference center: EARTH

Epoch: Dec. 12, 2025, 6:56 a.m. UTC

TLE line 0: 0 WEINA 1B

TLE line 1: 1 43279U 18034E 25346.28891692 .00000123 00000-0 29474-3 0 9991

TLE line 2: 2 43279 63.3951 212.6411 0258485 7.2875 353.1795 13.45354086377067

Live tracking on map

Real-time ground track for satellite WEINA 1B.

In-orbit conjunctions

There are no conjunctions computed for WEINA 1B, at the moment. Check back to stay up to date, as we update our databases every day.

Go to all conjunctions

Associated space launch

WEINA 1B was lifted into orbit during the mission ‘Long March 4C | 3 x Yaogan-31-01’, on board a Long March 4C space rocket.

The launch took place on April 10, 2018, 4:25 a.m. from Launch Area 94 (SLS-2 / 603).

For more information about the launch, click the button.

Launch to space Long March 4C | 3 x Yaogan-31-01
Long March 4C | 3 x Yaogan-31-01

Agency: N/A

Status: Launch Successful

Launch date: April 10, 2018, 4:25 a.m. UTC

Rocket: Long March 4C

Launch pad: Launch Area 94 (SLS-2 / 603)

Location: Jiuquan Satellite Launch Center, People's Republic of China

...

Latest news about this satellite

There are no fresh news available about this satellite. Check back as we update our databases every day.


Newsletter sign-up

Weekly statistics, charts and insights to help you stay on top of the space industry.